UAL5195 KSAN-KSFO

Flight info

Callsign UAL5195
Flight time 1h 7m
Altitude 40000
Route PADRZ2 IKAYE RIZIN SPLNT STOKD SERFR SERFR4
Aircraft B772/H-SDE2E3FGHIJ5LORVWXY/LB1D1

Departure

Time 2026-04-24 02:43
Airport San Diego International Airport (KSAN)

Arrival

Time 2026-04-24 03:51
Airport San Francisco International Airport (KSFO)
Time Latitude Longitude Altitude Speed Heading
2026-04-24 02:27 32.73257 -117.20710 25 ft 0 kts 191°
2026-04-24 02:31 32.73266 -117.20708 31 ft 4 kts 193°
2026-04-24 02:31 32.73292 -117.20700 31 ft 4 kts 197°
2026-04-24 02:31 32.73318 -117.20690 31 ft 4 kts 194°
2026-04-24 02:32 32.73342 -117.20687 31 ft 4 kts 153°
2026-04-24 02:32 32.73349 -117.20692 31 ft 0 kts 124°
2026-04-24 02:35 32.73332 -117.20604 30 ft 18 kts 81°
2026-04-24 02:35 32.73407 -117.20552 28 ft 14 kts 359°
2026-04-24 02:36 32.73498 -117.20527 27 ft 14 kts 39°
2026-04-24 02:36 32.73563 -117.20440 26 ft 13 kts 49°
2026-04-24 02:36 32.73586 -117.20342 27 ft 13 kts 108°
2026-04-24 02:36 32.73571 -117.20285 30 ft 6 kts 104°
2026-04-24 02:37 32.73569 -117.20274 30 ft 1 kts 104°
2026-04-24 02:37 32.73567 -117.20265 26 ft 1 kts 104°
2026-04-24 02:37 32.73558 -117.20218 27 ft 10 kts 104°
2026-04-24 02:37 32.73537 -117.20121 27 ft 15 kts 105°
2026-04-24 02:38 32.73502 -117.19985 27 ft 18 kts 107°
2026-04-24 02:38 32.73459 -117.19809 28 ft 23 kts 106°
2026-04-24 02:38 32.73414 -117.19627 27 ft 23 kts 106°
2026-04-24 02:38 32.73370 -117.19444 28 ft 23 kts 106°
2026-04-24 02:39 32.73325 -117.19262 27 ft 23 kts 106°
2026-04-24 02:39 32.73282 -117.19080 27 ft 23 kts 106°
2026-04-24 02:39 32.73236 -117.18891 27 ft 27 kts 106°
2026-04-24 02:39 32.73178 -117.18649 28 ft 32 kts 106°
2026-04-24 02:40 32.73119 -117.18408 28 ft 30 kts 106°
2026-04-24 02:40 32.73061 -117.18170 26 ft 30 kts 106°
2026-04-24 02:40 32.73012 -117.17967 25 ft 16 kts 105°
2026-04-24 02:40 32.72982 -117.17841 22 ft 16 kts 106°
2026-04-24 02:41 32.72961 -117.17757 20 ft 7 kts 106°
2026-04-24 02:41 32.72951 -117.17702 22 ft 7 kts 91°
2026-04-24 02:41 32.72955 -117.17674 23 ft 0 kts 77°
2026-04-24 02:42 32.72955 -117.17673 23 ft 2 kts 77°
2026-04-24 02:42 32.72968 -117.17611 26 ft 8 kts 75°
2026-04-24 02:42 32.73011 -117.17573 27 ft 8 kts
2026-04-24 02:43 32.73029 -117.17612 28 ft 14 kts 285°
2026-04-24 02:43 32.73111 -117.17946 24 ft 83 kts 285°
2026-04-24 02:43 32.73353 -117.18933 37 ft 163 kts 287°
2026-04-24 02:43 32.73718 -117.20334 658 ft 181 kts 288°
2026-04-24 02:44 32.74166 -117.21687 1022 ft 181 kts 303°
2026-04-24 02:44 32.74992 -117.22819 1356 ft 171 kts 312°
2026-04-24 02:44 32.75688 -117.23928 1844 ft 171 kts 297°
2026-04-24 02:44 32.76268 -117.25216 2293 ft 190 kts 301°
2026-04-24 02:45 32.77027 -117.26646 2576 ft 219 kts 303°
2026-04-24 02:45 32.77922 -117.28261 2863 ft 248 kts 303°
2026-04-24 02:45 32.78904 -117.30002 3584 ft 257 kts 303°
2026-04-24 02:45 32.79913 -117.31779 4409 ft 263 kts 304°
2026-04-24 02:46 32.81008 -117.33547 5226 ft 267 kts 307°
2026-04-24 02:46 32.82133 -117.35274 6139 ft 268 kts 307°
2026-04-24 02:46 32.83277 -117.37023 7033 ft 268 kts 307°
2026-04-24 02:46 32.84424 -117.38782 7881 ft 271 kts 306°
2026-04-24 02:47 32.85582 -117.40566 8730 ft 273 kts 306°
2026-04-24 02:47 32.86747 -117.42367 9541 ft 277 kts 305°
2026-04-24 02:47 32.87919 -117.44183 9980 ft 279 kts 305°
2026-04-24 02:47 32.89106 -117.46025 9977 ft 280 kts 305°
2026-04-24 02:48 32.90289 -117.47863 9983 ft 280 kts 305°
2026-04-24 02:48 32.91475 -117.49706 10002 ft 282 kts 305°
2026-04-24 02:48 32.92665 -117.51557 9980 ft 282 kts 305°
2026-04-24 02:48 32.93854 -117.53407 9979 ft 281 kts 305°
2026-04-24 02:49 32.95038 -117.55253 9984 ft 280 kts 305°
2026-04-24 02:49 32.96223 -117.57101 10091 ft 283 kts 305°
2026-04-24 02:49 32.97468 -117.59046 10386 ft 308 kts 305°
2026-04-24 02:49 32.98771 -117.61082 11143 ft 318 kts 305°
2026-04-24 02:50 33.00123 -117.63192 12130 ft 323 kts 305°
2026-04-24 02:50 33.01488 -117.65323 13320 ft 324 kts 305°
2026-04-24 02:50 33.02859 -117.67465 14404 ft 327 kts 304°
2026-04-24 02:50 33.04245 -117.69631 15392 ft 330 kts 304°
2026-04-24 02:51 33.05642 -117.71818 16390 ft 334 kts 304°
2026-04-24 02:51 33.07150 -117.73936 17332 ft 339 kts 311°
2026-04-24 02:51 33.08939 -117.75822 18243 ft 347 kts 316°
2026-04-24 02:51 33.10830 -117.77645 19079 ft 352 kts 316°
2026-04-24 02:52 33.12742 -117.79490 19939 ft 355 kts 316°
2026-04-24 02:52 33.14651 -117.81377 20790 ft 358 kts 315°
2026-04-24 02:52 33.16561 -117.83308 21609 ft 362 kts 315°
2026-04-24 02:52 33.18487 -117.85270 22444 ft 366 kts 315°
2026-04-24 02:53 33.20383 -117.87267 23279 ft 370 kts 312°
2026-04-24 02:53 33.22235 -117.89412 24036 ft 373 kts 310°
2026-04-24 02:53 33.24069 -117.91621 24770 ft 376 kts 310°
2026-04-24 02:53 33.25910 -117.93859 25518 ft 379 kts 310°
2026-04-24 02:54 33.27767 -117.96113 26256 ft 382 kts 310°
2026-04-24 02:54 33.29646 -117.98385 26968 ft 386 kts 310°
2026-04-24 02:54 33.31550 -118.00677 27666 ft 390 kts 310°
2026-04-24 02:54 33.33475 -118.02988 28345 ft 394 kts 310°
2026-04-24 02:55 33.35423 -118.05323 28979 ft 399 kts 310°
2026-04-24 02:55 33.37393 -118.07685 29570 ft 404 kts 310°
2026-04-24 02:55 33.39389 -118.10076 30168 ft 408 kts 310°
2026-04-24 02:55 33.41400 -118.12486 30691 ft 411 kts 310°
2026-04-24 02:56 33.43396 -118.14878 31234 ft 413 kts 310°
2026-04-24 02:56 33.45431 -118.17318 31730 ft 415 kts 309°
2026-04-24 02:56 33.47478 -118.19775 32179 ft 419 kts 309°
2026-04-24 02:56 33.49544 -118.22260 32609 ft 422 kts 309°
2026-04-24 02:57 33.51627 -118.24764 33053 ft 425 kts 309°
2026-04-24 02:57 33.53720 -118.27283 33487 ft 428 kts 309°
2026-04-24 02:57 33.55826 -118.29820 33907 ft 431 kts 309°
2026-04-24 02:57 33.57954 -118.32386 34144 ft 436 kts 309°
2026-04-24 02:58 33.60101 -118.34977 34436 ft 439 kts 309°
2026-04-24 02:58 33.62249 -118.37566 34906 ft 436 kts 309°
2026-04-24 02:58 33.64376 -118.40129 35498 ft 431 kts 308°
2026-04-24 02:58 33.66482 -118.42669 36070 ft 426 kts 308°
2026-04-24 02:59 33.68562 -118.45181 36594 ft 423 kts 308°
2026-04-24 02:59 33.70604 -118.47654 37032 ft 422 kts 308°
2026-04-24 02:59 33.72668 -118.50156 37443 ft 421 kts 307°
2026-04-24 02:59 33.74722 -118.52649 37847 ft 421 kts 307°
2026-04-24 03:00 33.76784 -118.55152 38209 ft 420 kts 307°
2026-04-24 03:00 33.78834 -118.57641 38647 ft 418 kts 307°
2026-04-24 03:00 33.80876 -118.60122 38951 ft 417 kts 307°
2026-04-24 03:00 33.82921 -118.62611 39172 ft 419 kts 307°
2026-04-24 03:01 33.84973 -118.65110 39390 ft 420 kts 307°
2026-04-24 03:01 33.87026 -118.67611 39632 ft 420 kts 307°
2026-04-24 03:01 33.89055 -118.70083 39867 ft 421 kts 307°
2026-04-24 03:01 33.91120 -118.72603 39903 ft 424 kts 307°
2026-04-24 03:02 33.95262 -118.77659 39972 ft 423 kts 307°
2026-04-24 03:02 33.99381 -118.82691 39980 ft 420 kts 307°
2026-04-24 03:03 34.03472 -118.87701 39977 ft 419 kts 307°
2026-04-24 03:03 34.07556 -118.92712 39988 ft 419 kts 307°
2026-04-24 03:04 34.11653 -118.97744 39994 ft 421 kts 307°
2026-04-24 03:04 34.15512 -119.02955 39993 ft 414 kts 297°
2026-04-24 03:05 34.18515 -119.08868 39978 ft 413 kts 295°
2026-04-24 03:05 34.21471 -119.14837 39973 ft 415 kts 296°
2026-04-24 03:06 34.24488 -119.20788 39972 ft 416 kts 296°
2026-04-24 03:06 34.27542 -119.26748 39974 ft 417 kts 296°
2026-04-24 03:07 34.30599 -119.32712 39968 ft 417 kts 296°
2026-04-24 03:07 34.33631 -119.38640 39976 ft 417 kts 296°
2026-04-24 03:08 34.38195 -119.47591 39984 ft 417 kts 296°
2026-04-24 03:09 34.41441 -119.53427 39990 ft 421 kts 302°
2026-04-24 03:09 34.45429 -119.58698 39994 ft 427 kts 308°
2026-04-24 03:10 34.49621 -119.63793 39988 ft 426 kts 308°
2026-04-24 03:10 34.53767 -119.68862 40001 ft 426 kts 308°
2026-04-24 03:11 34.57932 -119.73984 39991 ft 426 kts 308°
2026-04-24 03:11 34.62089 -119.79113 39996 ft 425 kts 308°
2026-04-24 03:12 34.66235 -119.84239 39996 ft 425 kts 307°
2026-04-24 03:12 34.70381 -119.89371 39997 ft 426 kts 307°
2026-04-24 03:13 34.74498 -119.94481 40042 ft 425 kts 308°
2026-04-24 03:13 34.78652 -119.99632 40018 ft 427 kts 308°
2026-04-24 03:14 34.82808 -120.04796 40014 ft 427 kts 308°
2026-04-24 03:14 34.86961 -120.09965 40025 ft 427 kts 308°
2026-04-24 03:15 34.90413 -120.14264 40052 ft 427 kts 308°
2026-04-24 03:15 34.94558 -120.19449 40025 ft 427 kts 308°
2026-04-24 03:16 34.98711 -120.24646 40030 ft 428 kts 308°
2026-04-24 03:16 35.03536 -120.30689 40024 ft 428 kts 308°
2026-04-24 03:17 35.06990 -120.35024 40051 ft 428 kts 308°
2026-04-24 03:17 35.11262 -120.40134 40025 ft 431 kts 310°
2026-04-24 03:18 35.15703 -120.45081 40038 ft 433 kts 311°
2026-04-24 03:18 35.20155 -120.50036 40028 ft 433 kts 311°
2026-04-24 03:19 35.24586 -120.55004 40062 ft 432 kts 311°
2026-04-24 03:19 35.28988 -120.59961 40051 ft 434 kts 311°
2026-04-24 03:20 35.33429 -120.64971 40034 ft 434 kts 311°
2026-04-24 03:20 35.37867 -120.69982 40050 ft 434 kts 311°
2026-04-24 03:21 35.42307 -120.75005 40039 ft 434 kts 311°
2026-04-24 03:21 35.46740 -120.80026 40061 ft 433 kts 311°
2026-04-24 03:22 35.51376 -120.84734 40058 ft 438 kts 316°
2026-04-24 03:22 35.56255 -120.89220 40062 ft 438 kts 317°
2026-04-24 03:23 35.61137 -120.93720 40060 ft 439 kts 317°
2026-04-24 03:23 35.66005 -120.98239 40055 ft 438 kts 316°
2026-04-24 03:24 35.70867 -121.02770 39639 ft 436 kts 316°
2026-04-24 03:24 35.73274 -121.05014 39225 ft 431 kts 316°
2026-04-24 03:24 35.75615 -121.07198 38874 ft 426 kts 316°
2026-04-24 03:24 35.77966 -121.09393 38428 ft 422 kts 316°
2026-04-24 03:25 35.80293 -121.11571 37918 ft 419 kts 316°
2026-04-24 03:25 35.82605 -121.13738 37450 ft 416 kts 316°
2026-04-24 03:25 35.84896 -121.15885 36998 ft 412 kts 316°
2026-04-24 03:25 35.87163 -121.18011 36564 ft 408 kts 316°
2026-04-24 03:26 35.89415 -121.20125 36141 ft 405 kts 317°
2026-04-24 03:26 35.91644 -121.22219 35742 ft 402 kts 316°
2026-04-24 03:26 35.93856 -121.24298 35369 ft 398 kts 317°
2026-04-24 03:26 35.96049 -121.26361 34915 ft 395 kts 317°
2026-04-24 03:27 35.98233 -121.28418 34505 ft 393 kts 317°
2026-04-24 03:27 36.00371 -121.30433 34126 ft 390 kts 317°
2026-04-24 03:27 36.02519 -121.32457 33716 ft 387 kts 317°
2026-04-24 03:27 36.04652 -121.34467 33279 ft 384 kts 317°
2026-04-24 03:28 36.06771 -121.36462 32846 ft 382 kts 318°
2026-04-24 03:28 36.08961 -121.38331 32472 ft 381 kts 321°
2026-04-24 03:28 36.11196 -121.40068 32140 ft 378 kts 322°
2026-04-24 03:28 36.13427 -121.41758 31740 ft 376 kts 323°
2026-04-24 03:29 36.15652 -121.43445 31330 ft 374 kts 323°
2026-04-24 03:29 36.17864 -121.45138 30909 ft 373 kts 323°
2026-04-24 03:29 36.20057 -121.46829 30525 ft 370 kts 323°
2026-04-24 03:29 36.22233 -121.48517 30178 ft 368 kts 323°
2026-04-24 03:30 36.24392 -121.50198 29797 ft 366 kts 323°
2026-04-24 03:30 36.26538 -121.51874 29357 ft 363 kts 323°
2026-04-24 03:30 36.28646 -121.53524 28898 ft 363 kts 323°
2026-04-24 03:30 36.30777 -121.55191 28435 ft 362 kts 323°
2026-04-24 03:31 36.32903 -121.56853 28039 ft 360 kts 323°
2026-04-24 03:31 36.35011 -121.58505 27637 ft 358 kts 323°
2026-04-24 03:31 36.37108 -121.60152 27234 ft 356 kts 323°
2026-04-24 03:31 36.39199 -121.61793 26845 ft 355 kts 323°
2026-04-24 03:32 36.41281 -121.63428 26488 ft 354 kts 323°
2026-04-24 03:32 36.43353 -121.65056 26161 ft 351 kts 323°
2026-04-24 03:32 36.45413 -121.66674 25814 ft 349 kts 323°
2026-04-24 03:32 36.47436 -121.68265 25493 ft 348 kts 323°
2026-04-24 03:33 36.49475 -121.69869 25159 ft 347 kts 323°
2026-04-24 03:33 36.51508 -121.71473 24841 ft 345 kts 323°
2026-04-24 03:33 36.53531 -121.73070 24508 ft 344 kts 323°
2026-04-24 03:33 36.55547 -121.74663 24185 ft 343 kts 323°
2026-04-24 03:34 36.57559 -121.76256 23842 ft 342 kts 323°
2026-04-24 03:34 36.59565 -121.77844 23503 ft 341 kts 323°
2026-04-24 03:34 36.61562 -121.79425 23167 ft 339 kts 324°
2026-04-24 03:34 36.63550 -121.81002 22761 ft 339 kts 324°
2026-04-24 03:35 36.65541 -121.82582 22346 ft 339 kts 324°
2026-04-24 03:35 36.67504 -121.84139 21995 ft 338 kts 324°
2026-04-24 03:35 36.69484 -121.85710 21662 ft 337 kts 324°
2026-04-24 03:35 36.71455 -121.87276 21332 ft 335 kts 324°
2026-04-24 03:36 36.73421 -121.88832 21018 ft 333 kts 326°
2026-04-24 03:36 36.75541 -121.89974 20551 ft 336 kts 343°
2026-04-24 03:36 36.77845 -121.90584 20073 ft 339 kts 346°
2026-04-24 03:36 36.80154 -121.91169 19775 ft 338 kts 346°
2026-04-24 03:37 36.82443 -121.91768 19517 ft 335 kts 346°
2026-04-24 03:37 36.84712 -121.92379 19216 ft 333 kts 346°
2026-04-24 03:37 36.86968 -121.93000 18913 ft 332 kts 346°
2026-04-24 03:37 36.89221 -121.93628 18599 ft 331 kts 345°
2026-04-24 03:38 36.91446 -121.94250 18135 ft 333 kts 346°
2026-04-24 03:38 36.93717 -121.94886 17607 ft 335 kts 347°
2026-04-24 03:38 36.95990 -121.95554 17101 ft 336 kts 344°
2026-04-24 03:38 36.98235 -121.96382 16586 ft 337 kts 342°
2026-04-24 03:39 37.00471 -121.97277 16101 ft 338 kts 342°
2026-04-24 03:39 37.02709 -121.98182 15611 ft 338 kts 342°
2026-04-24 03:39 37.04952 -121.99082 15124 ft 339 kts 342°
2026-04-24 03:39 37.07198 -121.99974 14653 ft 339 kts 343°
2026-04-24 03:40 37.09447 -122.00860 14172 ft 339 kts 343°
2026-04-24 03:40 37.11704 -122.01746 13535 ft 343 kts 343°
2026-04-24 03:40 37.14002 -122.02646 12761 ft 349 kts 343°
2026-04-24 03:40 37.16308 -122.03550 12064 ft 354 kts 343°
2026-04-24 03:41 37.18652 -122.04468 11558 ft 351 kts 343°
2026-04-24 03:41 37.20982 -122.05381 10898 ft 346 kts 344°
2026-04-24 03:41 37.23192 -122.06250 10171 ft 321 kts 344°
2026-04-24 03:41 37.25252 -122.07058 9391 ft 301 kts 344°
2026-04-24 03:42 37.27200 -122.07821 8651 ft 286 kts 343°
2026-04-24 03:42 37.29043 -122.08544 8042 ft 270 kts 342°
2026-04-24 03:42 37.30810 -122.09239 7331 ft 263 kts 342°
2026-04-24 03:42 37.32509 -122.09909 6996 ft 253 kts 342°
2026-04-24 03:43 37.34239 -122.10590 6676 ft 268 kts 342°
2026-04-24 03:43 37.36049 -122.11304 6316 ft 274 kts 342°
2026-04-24 03:43 37.37784 -122.11988 6059 ft 251 kts 342°
2026-04-24 03:43 37.39378 -122.12617 5664 ft 239 kts 342°
2026-04-24 03:44 37.41022 -122.12984 5128 ft 244 kts 357°
2026-04-24 03:44 37.42688 -122.12994 4598 ft 234 kts
2026-04-24 03:44 37.44280 -122.12954 4052 ft 224 kts
2026-04-24 03:44 37.45811 -122.12898 3518 ft 216 kts
2026-04-24 03:45 37.47285 -122.12833 3267 ft 209 kts
2026-04-24 03:45 37.48782 -122.12756 3133 ft 220 kts
2026-04-24 03:45 37.50296 -122.12784 3089 ft 217 kts 347°
2026-04-24 03:45 37.51565 -122.13691 3100 ft 213 kts 312°
2026-04-24 03:46 37.52420 -122.15202 3119 ft 214 kts 302°
2026-04-24 03:46 37.53188 -122.16825 3098 ft 215 kts 298°
2026-04-24 03:46 37.53892 -122.18467 3091 ft 213 kts 297°
2026-04-24 03:46 37.54596 -122.20147 2796 ft 220 kts 297°
2026-04-24 03:47 37.55298 -122.21818 2499 ft 205 kts 297°
2026-04-24 03:47 37.55913 -122.23288 2241 ft 175 kts 296°
2026-04-24 03:47 37.56454 -122.24577 2017 ft 159 kts 296°
2026-04-24 03:47 37.56953 -122.25768 1818 ft 146 kts 296°
2026-04-24 03:48 37.57407 -122.26852 1633 ft 135 kts 296°
2026-04-24 03:48 37.57844 -122.27894 1454 ft 134 kts 296°
2026-04-24 03:48 37.58266 -122.28901 1284 ft 130 kts 296°
2026-04-24 03:48 37.58686 -122.29902 1089 ft 129 kts 296°
2026-04-24 03:49 37.59104 -122.30900 933 ft 128 kts 296°
2026-04-24 03:49 37.59514 -122.31873 738 ft 123 kts 296°
2026-04-24 03:49 37.59909 -122.32821 623 ft 119 kts 295°
2026-04-24 03:49 37.60288 -122.33738 424 ft 116 kts 295°
2026-04-24 03:50 37.60650 -122.34640 232 ft 113 kts 294°
2026-04-24 03:50 37.61021 -122.35474 154 ft 110 kts 294°
2026-04-24 03:50 37.61385 -122.36333 36 ft 105 kts 294°
2026-04-24 03:50 37.61657 -122.37009 27 ft 62 kts 299°
2026-04-24 03:51 37.61835 -122.37430 27 ft 49 kts 297°
2026-04-24 03:51 37.61970 -122.37746 27 ft 25 kts 298°
2026-04-24 03:51 37.61976 -122.37913 26 ft 0 kts 242°
2026-04-24 03:51 37.61975 -122.37914 26 ft 2 kts 240°
2026-04-24 03:52 37.61956 -122.37990 26 ft 11 kts 279°
2026-04-24 03:52 37.61986 -122.38077 26 ft 11 kts 296°
2026-04-24 03:52 37.62021 -122.38161 26 ft 11 kts 299°
2026-04-24 03:52 37.62064 -122.38261 26 ft 19 kts 298°
2026-04-24 03:53 37.62144 -122.38454 27 ft 27 kts 297°
2026-04-24 03:53 37.62231 -122.38663 26 ft 27 kts 297°
2026-04-24 03:53 37.62313 -122.38857 26 ft 24 kts 298°
2026-04-24 03:53 37.62334 -122.38997 26 ft 16 kts 255°
2026-04-24 03:54 37.62300 -122.39129 26 ft 16 kts 244°
2026-04-24 03:54 37.62228 -122.39214 26 ft 10 kts 209°
2026-04-24 03:54 37.62153 -122.39261 26 ft 15 kts 206°
2026-04-24 03:54 37.62081 -122.39281 26 ft 10 kts 158°
2026-04-24 03:55 37.62039 -122.39214 26 ft 10 kts 119°
2026-04-24 03:55 37.62022 -122.39159 26 ft 0 kts 77°
2026-04-24 03:55 37.62040 -122.39140 26 ft 6 kts 36°
2026-04-24 03:55 37.62062 -122.39097 26 ft 5 kts 68°
2026-04-24 03:56 37.62068 -122.39078 26 ft 1 kts 70°
2026-04-24 03:56 37.62070 -122.39071 25 ft 1 kts 70°
2026-04-24 03:56 37.62071 -122.39066 26 ft 1 kts 71°
2026-04-24 03:56 37.62072 -122.39065 26 ft 0 kts 71°
2026-04-24 03:57 37.62072 -122.39064 26 ft 0 kts 71°
2026-04-24 03:57 37.62072 -122.39063 26 ft 0 kts 71°